Location: Chequamegon National Forest
(46.1070°N, 90.8420°W)
Time: 04:44:31
(UTC-05:00)

ISS - All Passes

Search period start: 04 August 2015 00:00
Search period end: 14 August 2015 00:00
Orbit: 401 x 403 km, 51.6° (Epoch: 03 August)

Date Brightness Start Highest point End Pass type
(mag) Time Alt. Az. Time Alt. Az. Time Alt. Az.
04 Aug - 00:11:57 10° WNW 00:14:53 30° N 00:17:51 10° ENE visible
04 Aug - 01:48:25 10° WNW 01:51:41 69° NNE 01:54:57 10° ESE visible
04 Aug - 03:25:19 10° W 03:27:52 21° SW 03:30:22 10° S night (unlit)
04 Aug - 20:05:40 10° SSW 20:08:31 29° SE 20:11:25 10° E daylight
04 Aug - 21:41:37 10° W 21:44:50 53° NNW 21:48:02 10° ENE visible
04 Aug - 23:18:46 10° WNW 23:21:41 29° N 23:24:37 10° ENE visible
05 Aug - 00:55:24 10° WNW 00:58:35 47° NNE 01:01:45 10° E visible
05 Aug - 02:31:56 10° WNW 02:34:58 36° SW 02:38:00 10° SSE night (unlit)
05 Aug - 19:13:29 10° S 19:15:38 17° SE 19:17:51 10° E daylight
05 Aug - 20:48:28 10° WSW 20:51:44 82° NNW 20:55:00 10° ENE daylight
05 Aug - 22:25:30 10° WNW 22:28:28 31° N 22:31:27 10° ENE visible
06 Aug - 00:02:21 10° WNW 00:05:25 36° NNE 00:08:29 10° E visible
06 Aug - 01:38:46 10° WNW 01:42:00 63° SSW 01:45:14 10° SE visible
06 Aug - 19:55:29 10° SW 19:58:41 60° SSE 20:01:55 10° ENE daylight
06 Aug - 21:32:11 10° W 21:35:15 37° NNW 21:38:20 10° ENE visible
06 Aug - 23:09:15 10° WNW 23:12:12 31° N 23:15:10 10° ENE visible
07 Aug - 00:45:41 10° WNW 00:48:57 78° NNE 00:52:13 10° ESE visible
07 Aug - 02:22:45 10° W 02:25:04 18° SW 02:27:20 10° S night (unlit)
07 Aug - 19:02:44 10° SSW 19:05:43 34° SE 19:08:43 10° ENE daylight
07 Aug - 20:38:54 10° W 20:42:04 48° NNW 20:45:16 10° ENE daylight
07 Aug - 22:16:03 10° WNW 22:18:58 29° N 22:21:53 10° ENE visible
07 Aug - 23:52:38 10° WNW 23:55:50 51° NNE 23:59:02 10° E visible
08 Aug - 01:29:13 10° WNW 01:32:10 31° SW 01:35:05 10° SSE night (unlit)
08 Aug - 18:10:23 10° S 18:12:47 19° SE 18:15:14 10° E daylight
08 Aug - 19:45:41 10° WSW 19:48:56 73° NNW 19:52:12 10° ENE daylight
08 Aug - 21:22:45 10° WNW 21:25:42 30° N 21:28:40 10° ENE visible
08 Aug - 22:59:34 10° WNW 23:02:39 38° NNE 23:05:43 10° E visible
09 Aug - 00:35:58 10° WNW 00:39:10 54° SSW 00:42:22 10° SE visible
09 Aug - 17:19:02 10° SSE 17:19:54 11° SE 17:20:53 10° ESE daylight
09 Aug - 18:52:36 10° SW 18:55:50 69° SSE 18:59:06 10° ENE daylight
09 Aug - 20:29:25 10° W 20:32:28 35° NNW 20:35:30 10° ENE daylight
09 Aug - 22:06:25 10° WNW 22:09:24 32° N 22:12:23 10° ENE visible
09 Aug - 23:42:50 10° WNW 23:46:07 88° NNE 23:49:23 10° ESE visible
10 Aug - 01:20:07 10° W 01:22:10 15° SW 01:24:09 10° S night (unlit)
10 Aug - 17:59:45 10° SW 18:02:48 39° SE 18:05:53 10° ENE daylight
10 Aug - 19:36:04 10° W 19:39:13 44° NNW 19:42:23 10° ENE daylight
10 Aug - 21:13:12 10° WNW 21:16:08 29° N 21:19:03 10° ENE visible
10 Aug - 22:49:44 10° WNW 22:52:58 57° NNE 22:56:11 10° ESE visible
11 Aug - 00:26:25 10° W 00:29:14 27° SW 00:32:02 10° SSE visible
11 Aug - 17:07:14 10° SSW 17:09:49 22° SE 17:12:28 10° E daylight
11 Aug - 18:42:47 10° WSW 18:46:02 65° NNW 18:49:17 10° ENE daylight
11 Aug - 20:19:54 10° WNW 20:22:50 30° N 20:25:46 10° ENE daylight
11 Aug - 21:56:38 10° WNW 21:59:45 41° NNE 22:02:52 10° E visible
11 Aug - 23:33:04 10° WNW 23:36:14 47° SW 23:39:22 10° SE visible
12 Aug - 16:15:24 10° SSE 16:16:54 13° SE 16:18:29 10° ESE daylight
12 Aug - 17:49:38 10° WSW 17:52:53 79° SSE 17:56:09 10° ENE daylight
12 Aug - 19:26:32 10° WNW 19:29:32 33° N 19:32:34 10° ENE daylight
12 Aug - 21:03:29 10° WNW 21:06:29 33° N 21:09:30 10° ENE visible
12 Aug - 22:39:53 10° WNW 22:43:09 82° SSW 22:46:25 10° ESE visible
13 Aug - 00:17:27 10° WSW 00:19:09 13° SW 00:20:46 10° SSW visible
13 Aug - 16:56:40 10° SW 16:59:47 45° SE 17:02:56 10° ENE daylight
13 Aug - 18:33:08 10° W 18:36:16 41° NNW 18:39:23 10° ENE daylight
13 Aug - 20:10:15 10° WNW 20:13:11 30° N 20:16:07 10° ENE daylight
13 Aug - 21:46:45 10° WNW 21:50:00 63° NNE 21:53:14 10° ESE visible
13 Aug - 23:23:32 10° W 23:26:12 23° SW 23:28:51 10° SSE visible
